Theta_e
323 323 322 323 323 323 323 323 322 323 323 323 322 322 321 321 320 320 321 321 321 320 321 323 324 325 326 326 327 327 327 327 327 326 323 319 319 323 326 328 325 323 322 319 319 320 321 322 323 325 327 328 329 328 328 328 328 330 330 328 327 328 327
320 321 320 322 323 322 323 324 323 322 322 322 322 323 323 322 321 320 320 319 320 321 321 322 323 323 324 324 324 325 326 327 326 323 317 313 313 319 324 326 326 326 324 323 321 319 320 320 320 322 325 327 328 327 326 326 326 326 326 324 324 326 326
318 316 315 319 321 320 320 321 322 322 322 322 322 322 322 323 323 322 321 320 319 320 321 322 323 322 323 323 323 322 324 326 326 324 320 314 310 313 320 324 326 327 325 323 322 322 321 321 321 321 322 325 327 327 326 326 325 324 324 323 321 322 324
319 316 315 317 317 315 315 317 319 320 322 322 321 321 321 321 322 322 322 321 320 320 321 321 321 321 321 322 322 322 324 324 324 325 324 321 314 310 312 318 324 326 326 325 323 322 323 322 323 323 322 324 325 326 326 325 325 324 324 323 321 320 321
320 318 319 319 314 309 309 312 315 318 320 321 321 321 321 320 320 320 321 322 322 322 322 322 320 319 320 322 323 324 325 324 323 324 326 325 322 316 311 311 317 320 322 325 325 324 324 324 324 325 325 324 323 324 326 325 324 324 324 323 321 321 320
318 318 319 319 315 311 310 311 312 313 316 319 319 319 319 319 319 319 318 319 320 321 322 323 322 321 320 321 323 324 325 326 325 324 324 324 324 323 318 312 312 314 315 320 323 323 323 323 324 324 324 323 322 323 326 324 322 322 321 321 321 321 320
317 318 318 318 318 316 316 316 315 314 314 315 316 316 316 316 317 318 318 317 318 319 320 321 322 322 321 321 321 321 322 324 324 324 322 321 323 325 324 319 314 313 314 317 320 321 321 321 322 322 322 321 319 321 324 323 322 322 320 320 320 320 320
315 317 317 317 318 318 317 318 318 317 317 316 315 314 314 315 315 315 316 316 316 317 319 320 320 321 321 322 322 321 321 321 321 322 321 321 321 322 324 324 320 316 315 316 317 318 319 320 320 320 321 320 319 320 322 322 320 320 321 320 319 319 319
315 316 316 316 317 317 317 318 318 318 318 318 316 315 316 318 317 315 315 315 317 318 319 319 319 319 320 321 321 322 322 321 320 320 320 320 320 319 321 324 324 321 315 314 314 315 317 318 318 319 320 321 321 321 322 322 319 318 320 320 319 319 319
315 315 316 316 316 316 317 317 317 317 317 317 316 316 317 317 317 317 317 317 318 319 319 319 318 318 319 320 320 320 320 320 319 320 320 320 320 319 317 319 324 324 320 315 314 315 316 317 316 318 320 321 322 322 321 322 321 320 320 320 319 319 318
315 315 315 316 315 315 315 316 317 317 317 317 316 316 316 316 316 317 317 317 317 318 318 319 319 318 319 319 319 320 320 319 319 318 319 321 322 322 319 318 321 325 324 320 315 314 316 316 315 316 318 319 320 320 320 320 321 321 320 320 319 318 318
315 315 315 315 314 314 315 315 315 315 315 315 315 315 315 315 315 315 315 315 315 317 317 318 319 319 319 319 318 318 321 321 320 319 319 321 323 324 323 322 321 322 324 323 320 316 315 315 314 314 314 316 317 318 319 319 320 320 320 320 319 317 318
315 315 315 314 314 314 314 314 313 313 314 314 314 314 314 314 314 314 313 313 313 315 316 317 318 319 320 320 318 318 320 322 321 321 320 320 321 323 324 324 322 320 321 323 322 319 317 315 313 312 312 312 315 317 317 317 317 318 318 320 320 319 318
314 314 314 313 313 313 313 313 313 312 313 313 313 314 313 313 313 312 312 313 313 313 315 316 316 318 320 319 319 319 320 321 321 321 321 320 320 321 323 324 323 321 320 322 322 321 320 317 313 311 311 313 315 315 315 315 314 314 316 318 319 319 319
314 314 313 312 312 312 311 312 312 312 312 313 312 312 312 312 312 312 312 312 313 312 313 314 315 316 318 319 319 318 318 319 320 320 320 320 320 321 322 323 324 323 322 322 323 322 322 320 316 313 312 314 317 317 315 315 314 312 314 317 318 318 319
313 313 312 311 311 311 311 311 311 312 312 312 311 311 311 311 311 311 311 312 312 312 312 312 313 315 317 318 319 317 317 318 319 319 319 319 319 320 321 321 322 323 323 322 322 321 322 321 319 317 315 314 317 319 317 317 316 314 315 317 318 318 318
312 312 311 311 311 310 310 310 311 311 311 311 311 310 310 310 310 310 311 311 311 311 311 311 312 314 316 317 318 318 317 318 317 318 319 319 319 319 320 321 321 322 323 322 321 321 321 321 319 319 319 316 316 318 318 317 317 316 316 317 318 318 317
310 310 310 310 310 310 309 310 310 310 310 310 310 309 309 309 310 310 310 311 310 311 311 311 311 313 315 316 317 317 317 316 316 316 317 318 318 318 318 319 320 321 322 322 321 320 320 320 320 319 319 318 316 316 317 317 317 316 316 317 317 318 318
309 310 310 310 310 310 310 310 309 309 309 309 309 309 309 309 310 310 310 310 310 310 310 311 312 312 313 314 314 314 314 314 314 315 317 318 318 318 318 319 320 320 321 322 321 320 319 319 319 319 319 317 317 316 316 318 318 316 315 315 316 317 317
309 309 309 309 309 309 309 309 309 309 309 309 309 309 309 309 309 309 309 310 310 310 310 311 312 312 312 313 313 312 312 313 313 314 316 317 318 318 318 318 319 320 320 322 321 319 319 319 318 318 318 317 317 317 316 316 317 315 313 312 313 315 317
309 309 309 309 309 309 308 308 308 308 308 308 309 309 309 309 309 309 310 310 310 310 310 311 312 313 313 312 311 311 312 311 312 313 314 316 317 318 317 317 319 320 320 321 321 319 319 319 317 317 317 316 316 317 316 316 315 314 313 312 312 314 315
308 308 308 309 308 308 308 308 308 308 308 309 309 309 308 308 309 309 310 310 310 310 311 312 312 313 313 311 309 310 310 310 311 311 312 315 317 317 317 317 318 319 319 319 319 318 318 319 317 317 317 316 316 317 316 315 315 315 314 314 313 314 314
308 308 308 308 308 308 308 308 308 308 308 309 309 309 308 308 309 310 310 310 310 310 311 312 312 312 312 310 309 309 310 310 310 310 312 314 316 317 317 317 317 317 318 318 318 317 318 318 317 317 317 315 316 316 315 315 315 315 314 315 315 314 314
308 308 308 308 308 307 307 307 308 308 308 308 308 308 308 309 309 310 309 310 310 310 311 311 311 312 312 310 308 308 309 309 309 310 311 314 316 317 317 316 316 316 316 317 318 317 317 317 317 317 317 315 315 315 314 315 315 313 314 315 315 315 314
308 308 307 307 307 307 308 307 308 308 307 308 308 308 309 309 309 309 309 310 310 310 310 310 311 311 311 309 308 308 308 308 308 309 311 313 315 316 317 316 315 315 316 316 316 316 316 316 316 316 316 315 314 314 314 314 313 312 314 315 314 314 315
308 307 307 307 307 307 307 307 307 307 307 307 308 308 308 309 309 309 309 309 309 309 309 309 310 311 310 309 308 308 308 308 308 309 310 313 314 316 317 316 315 315 315 315 315 315 315 315 315 315 315 315 313 312 312 312 311 312 313 314 313 314 314
307 307 307 307 307 307 307 307 306 306 307 307 308 308 308 308 308 308 308 308 309 309 309 309 310 310 310 309 308 307 308 308 308 308 309 311 314 315 316 316 315 314 314 314 313 313 313 314 313 313 314 314 312 311 311 311 311 312 313 314 314 314 314
306 307 306 306 307 306 306 306 306 306 307 307 307 308 308 308 308 308 308 308 308 308 308 309 309 310 310 310 309 309 308 307 307 307 308 311 313 314 315 315 315 314 313 313 312 311 312 312 311 310 311 312 310 308 307 308 310 311 311 312 312 312 312
306 306 306 306 306 306 306 305 306 306 306 306 306 307 307 307 307 307 307 308 308 308 308 308 309 309 310 310 310 309 307 307 307 306 308 311 313 314 314 315 315 314 313 312 311 309 309 308 308 307 307 308 307 306 305 305 308 310 309 308 309 308 308
306 306 306 306 306 305 305 305 305 305 305 306 306 306 306 307 307 307 307 307 307 308 308 308 309 309 309 309 308 308 307 307 306 306 307 310 311 312 312 314 314 314 314 313 312 310 309 308 308 307 306 306 306 307 307 308 309 309 309 308 308 307 306
306 306 305 305 305 305 305 305 305 304 305 305 306 306 306 306 306 307 307 307 307 307 308 308 308 308 308 308 308 307 306 306 306 306 306 309 310 310 311 312 313 313 313 314 313 313 312 311 311 310 310 309 308 309 309 310 310 310 310 310 310 309 307
305 305 305 305 305 304 304 304 304 303 304 305 305 305 305 306 306 306 306 306 306 307 308 307 307 307 307 307 307 307 306 306 306 306 306 307 308 309 310 312 312 312 312 313 314 314 314 313 312 313 312 311 309 308 309 309 310 311 310 310 310 310 308
305 305 304 305 304 304 304 303 303 303 304 304 304 305 305 305 305 305 306 306 306 307 307 307 307 306 306 307 307 306 305 304 305 306 307 306 306 308 311 312 312 312 312 312 313 314 314 314 314 313 313 312 311 309 309 310 310 310 309 309 310 309 308
306 305 305 305 305 304 304 303 303 303 303 303 303 304 304 304 304 305 305 306 306 306 307 307 307 306 306 306 306 305 303 303 304 305 307 307 307 308 310 310 310 311 312 312 313 313 313 313 314 313 313 312 312 311 310 309 309 309 308 308 309 308 306
306 306 305 305 305 305 304 303 303 303 303 303 303 303 303 303 304 304 305 305 305 306 306 307 307 306 306 306 306 304 303 302 303 304 305 307 307 307 308 309 310 311 311 311 312 312 312 313 313 313 312 312 311 310 309 308 307 307 307 308 308 307 306
306 306 306 306 305 305 304 303 303 303 303 302 302 302 302 303 304 304 304 304 305 305 306 306 306 306 306 305 305 304 303 303 303 303 304 306 307 307 307 309 310 310 310 310 311 311 312 312 312 312 311 311 310 309 308 307 307 307 308 307 306 305 305
307 306 306 306 305 305 304 303 303 303 303 302 302 301 301 302 303 302 302 302 303 304 305 305 306 306 306 305 304 304 304 303 303 302 302 304 306 307 307 309 310 310 309 310 310 311 311 311 311 310 310 310 310 309 308 307 307 308 308 306 305 304 304
Wind_Speed
16 16 17 17 16 16 16 15 14 13 12 13 13 13 11 11 12 10 9 10 13 15 13 13 13 14 15 15 13 13 14 16 15 15 16 14 12 11 9 10 11 10 10 11 10 9 9 9 8 8 6 6 8 8 6 5 6 2 2 5 3 3 5
15 15 15 16 16 16 16 16 16 15 15 13 12 12 12 12 12 12 12 12 13 14 14 15 15 15 17 17 16 14 14 17 18 18 18 16 15 12 10 11 13 11 9 9 10 11 11 11 10 10 8 8 9 10 8 6 6 5 4 5 4 4 5
16 16 16 15 15 16 16 16 16 17 17 16 14 13 13 13 13 14 15 16 15 14 14 15 15 15 17 18 18 17 16 17 18 19 19 17 15 14 13 12 12 11 9 9 9 10 11 11 11 10 9 10 11 11 10 5 4 4 3 1 3 5 5
17 18 17 17 17 17 17 17 17 17 16 17 16 15 15 14 14 14 16 17 17 16 16 16 16 16 16 18 18 18 18 18 18 18 19 19 17 16 15 15 14 13 10 10 9 8 9 10 10 9 9 9 10 11 11 5 4 4 3 2 0 2 3
16 17 17 17 19 19 19 18 17 16 15 16 16 16 17 16 16 16 15 16 17 18 19 19 19 17 16 17 17 18 19 20 21 19 18 19 19 19 18 17 17 17 14 13 11 10 10 10 10 9 7 7 9 8 9 6 5 7 4 2 2 4 5
17 17 16 16 18 20 20 20 19 18 17 16 16 16 17 17 17 17 17 17 17 18 19 20 21 20 19 19 19 19 19 20 22 22 21 20 19 20 21 19 19 19 17 16 14 13 12 11 12 12 9 9 9 5 7 6 5 10 8 4 4 4 5
18 18 17 17 18 19 19 19 20 20 19 18 18 17 17 17 18 18 18 18 18 18 19 20 22 22 21 22 23 24 23 22 23 24 25 24 21 20 21 21 20 20 19 17 15 14 14 14 13 11 10 10 9 5 6 6 8 16 13 9 10 8 5
18 17 18 18 19 19 18 18 18 19 20 20 20 19 19 19 19 19 19 19 19 18 19 19 20 22 23 23 25 26 26 25 24 25 26 26 25 23 21 22 23 22 21 19 17 16 16 15 12 10 9 9 8 7 7 8 10 15 11 10 14 13 10
18 18 18 18 18 19 19 18 17 18 18 19 20 20 19 19 20 20 21 21 19 18 18 20 20 21 22 23 25 27 27 27 27 27 26 27 27 26 24 24 25 25 23 22 21 19 17 16 13 11 11 11 9 8 8 9 10 10 9 11 16 15 11
19 18 18 18 17 19 19 18 18 17 18 18 19 19 19 20 20 20 21 23 22 20 19 20 21 21 21 22 23 26 28 29 30 29 28 28 29 29 29 28 27 27 26 24 22 20 18 17 16 15 14 13 12 11 9 9 9 8 8 11 15 16 13
19 19 18 17 18 20 19 18 18 18 19 19 19 19 20 20 20 20 20 21 23 23 23 22 22 23 24 22 21 22 24 26 28 28 28 31 32 30 31 31 29 27 27 25 24 23 21 20 18 17 16 15 14 13 12 10 9 9 7 6 11 18 17
20 19 17 18 19 20 19 18 18 19 20 19 18 20 20 20 20 20 21 21 21 22 24 25 23 24 26 24 22 22 22 22 25 26 27 31 34 33 31 31 30 29 27 26 24 25 24 23 21 19 17 16 15 14 14 14 12 10 6 3 5 14 16
20 18 18 19 20 20 19 19 20 21 21 20 19 20 21 21 20 21 23 23 21 21 23 26 25 24 25 25 23 22 23 23 25 25 25 28 32 34 32 30 29 29 29 27 24 25 27 26 24 21 19 17 16 16 16 17 17 12 7 5 6 9 11
20 19 19 20 20 20 19 20 21 23 21 20 20 21 21 22 22 22 23 23 22 21 22 25 26 25 26 26 25 23 22 24 25 25 24 25 27 31 34 31 29 30 30 28 26 25 27 27 25 24 20 17 17 18 18 18 19 17 12 9 9 8 7
21 20 20 21 22 22 21 21 22 23 22 21 21 21 21 23 23 22 23 23 23 23 22 24 26 26 26 27 26 24 23 24 25 26 25 24 24 26 31 32 31 29 28 28 26 25 26 26 25 24 22 20 17 17 18 17 16 17 14 12 14 12 9
21 21 21 22 22 22 22 22 21 21 22 22 22 22 23 24 24 24 23 23 23 24 24 24 26 27 28 27 26 24 23 24 26 27 25 24 23 23 26 29 31 30 28 28 27 26 25 23 22 22 21 20 18 16 16 16 14 14 14 11 12 13 13
22 22 22 22 22 23 23 22 21 21 22 23 23 23 24 25 25 25 24 24 24 25 25 25 25 28 28 27 26 23 22 23 24 24 23 22 23 22 23 26 29 30 29 28 28 27 27 24 21 21 19 18 18 17 15 15 15 14 14 13 10 10 12
23 24 23 22 23 24 23 22 22 23 23 24 25 25 26 26 25 24 24 25 25 25 25 26 25 28 28 27 26 24 23 23 24 24 22 21 22 22 23 24 24 28 31 33 32 29 27 25 21 19 20 18 18 18 16 15 17 16 16 16 13 11 10
24 24 23 23 23 23 23 23 24 24 24 25 25 25 26 25 24 24 25 25 25 25 25 25 26 29 30 29 27 25 23 22 23 24 22 21 21 21 22 23 23 25 30 35 35 30 27 27 23 20 21 19 16 18 19 17 18 17 16 17 15 12 11
24 24 23 23 23 23 23 24 25 25 24 25 25 25 26 25 25 26 26 25 25 25 25 24 27 29 29 27 25 24 22 22 22 22 21 21 21 21 22 23 23 25 28 32 33 30 29 30 28 26 25 22 16 17 21 20 18 17 16 16 15 14 13
23 23 23 23 23 23 24 24 25 25 25 25 25 25 26 25 25 25 25 26 25 24 24 24 27 28 26 24 24 24 23 22 23 22 22 21 21 21 23 23 23 24 24 27 30 30 28 27 29 29 27 25 18 15 18 19 17 15 13 13 14 14 13
23 23 22 23 23 24 24 25 26 26 25 25 25 26 26 25 25 25 26 27 25 24 25 26 26 26 25 24 24 24 24 23 23 24 22 21 21 22 22 21 21 22 21 22 24 26 26 24 26 27 26 26 23 19 17 16 15 13 11 11 12 13 14
23 22 22 22 23 24 24 25 26 25 25 25 25 26 26 25 25 26 27 26 26 26 27 26 25 24 24 24 22 22 23 23 23 24 23 21 21 21 21 20 20 22 22 22 23 26 28 27 27 26 24 26 27 23 20 17 15 14 12 11 11 12 13
23 22 23 23 23 24 24 24 24 24 25 26 26 26 26 25 26 27 26 25 26 27 27 26 25 23 22 22 20 20 22 23 23 24 23 20 20 21 21 20 20 21 22 24 24 27 30 29 28 25 23 26 27 24 23 21 18 16 14 13 12 12 12
22 23 23 22 22 22 23 23 24 25 26 26 26 26 26 26 26 27 26 26 26 26 27 27 25 24 23 21 21 21 23 23 24 24 23 20 18 20 22 21 19 19 21 23 24 27 30 30 28 23 22 26 26 24 24 23 21 19 19 17 15 14 12
22 22 22 23 24 25 24 24 26 28 27 26 26 27 27 27 27 27 27 27 26 26 27 28 26 26 25 23 23 24 24 24 24 24 23 21 18 18 21 22 21 19 19 21 22 24 26 27 27 23 20 23 25 24 24 23 22 22 22 20 19 18 15
22 23 22 23 25 25 24 25 27 28 27 26 27 27 27 27 27 27 27 27 27 27 28 28 26 26 27 26 26 26 25 24 24 23 23 22 19 18 19 20 22 21 19 20 22 23 23 24 24 22 20 21 23 23 24 23 22 22 22 22 21 20 18
22 23 23 23 24 24 24 25 26 26 26 26 27 27 27 27 27 27 27 27 27 27 27 27 26 26 26 26 26 26 25 23 22 22 22 21 20 19 18 19 21 22 21 20 23 26 27 26 25 23 23 24 24 24 25 24 23 23 23 22 22 21 19
22 22 22 23 23 25 26 26 26 26 26 26 26 26 27 27 26 27 27 28 27 27 28 27 26 25 25 25 25 25 25 24 22 21 20 19 19 19 20 19 19 20 22 23 23 24 25 26 27 28 28 28 27 27 28 27 26 26 25 23 22 22 21
21 22 22 23 24 25 26 26 26 26 27 27 27 27 27 26 26 27 28 28 28 28 27 27 26 25 25 24 24 25 25 25 23 22 20 18 18 19 19 19 19 19 19 22 25 26 25 25 27 29 30 29 29 29 29 27 26 25 23 22 21 21 22
22 23 23 24 24 25 26 26 25 26 27 27 27 26 26 26 27 27 27 27 27 27 27 25 24 24 24 22 22 24 25 25 24 22 20 19 18 18 18 17 17 18 19 19 22 26 29 31 31 30 30 29 29 31 30 26 25 24 22 22 21 20 22
22 22 23 23 24 24 25 26 25 26 26 26 26 25 26 27 28 27 26 26 27 27 26 24 22 22 22 22 22 24 25 26 25 23 21 20 19 17 17 17 16 17 18 17 17 21 25 31 33 32 30 30 30 32 31 28 26 25 24 22 21 22 23
22 24 24 23 23 24 25 25 26 26 25 25 25 26 27 27 27 26 26 25 26 26 25 23 22 21 21 21 21 23 24 25 25 24 23 22 19 16 15 17 18 17 18 17 14 16 19 23 28 30 29 30 31 31 30 29 27 25 23 21 20 20 22
23 24 23 23 24 25 25 25 25 25 25 25 25 25 26 26 25 25 25 24 25 24 23 23 23 23 22 20 20 22 24 24 24 24 23 22 19 15 14 16 17 16 16 16 13 14 16 18 22 26 28 29 29 29 29 27 24 22 21 19 18 17 20
24 24 23 23 25 25 24 24 24 24 24 24 24 24 25 25 24 24 24 23 23 23 23 23 24 25 24 21 20 21 23 23 23 23 23 23 21 17 14 14 15 16 16 16 14 13 14 16 19 23 27 29 28 27 24 21 20 20 19 16 15 16 19
23 24 23 23 24 24 23 23 23 24 23 23 23 23 24 23 22 23 23 23 23 22 22 24 24 23 22 21 20 22 23 22 22 22 22 22 21 17 14 13 14 15 16 16 15 12 12 13 15 19 23 26 25 22 18 17 19 19 16 12 10 12 16
22 23 23 23 23 24 24 23 23 24 23 22 23 23 22 22 22 23 24 24 24 22 22 23 23 20 20 22 23 23 22 21 21 22 21 21 19 17 14 13 13 14 16 15 14 12 11 10 11 15 19 20 18 16 15 17 19 19 15 12 11 12 12
Wind_Direction
10 7 3 0 359 357 355 352 347 340 329 319 316 316 311 303 298 291 280 285 295 295 292 288 288 297 299 297 293 285 281 279 276 279 284 285 275 268 283 291 284 277 268 271 275 269 270 279 289 287 267 241 237 237 236 256 270 244 211 264 261 215 228
10 6 2 2 1 1 1 360 356 354 350 342 329 314 308 307 303 294 284 282 282 282 285 285 283 282 284 286 287 286 284 283 284 284 285 289 282 266 262 275 285 283 265 259 266 259 257 263 268 271 262 228 226 249 261 252 263 271 253 254 246 223 242
9 5 3 2 360 359 358 356 353 352 351 352 348 336 323 314 304 294 291 290 284 278 275 275 276 278 279 279 280 283 284 284 286 288 289 291 288 274 259 257 268 277 270 253 249 249 251 256 258 262 260 241 229 245 266 260 250 289 323 252 213 202 217
8 5 4 360 357 356 356 354 352 350 349 346 346 345 341 333 323 310 298 291 285 281 276 270 268 270 274 278 277 277 278 278 282 285 287 289 289 282 269 259 255 255 260 258 249 250 256 259 261 265 266 262 251 242 246 235 198 238 310 23 196 215 226
10 6 6 359 354 355 354 353 350 348 346 342 340 340 339 337 334 328 319 306 294 286 282 277 275 271 272 274 273 272 273 275 280 280 279 282 286 286 280 271 263 254 247 243 241 240 249 258 260 261 259 269 285 260 221 202 180 202 232 300 293 294 294
8 5 5 357 352 355 354 351 350 347 345 342 338 335 333 333 331 330 328 322 314 303 293 285 281 276 272 271 270 271 270 273 278 278 275 276 279 284 285 279 271 265 255 242 240 240 238 241 245 248 241 244 275 265 198 218 208 188 196 210 225 259 296
3 360 357 353 349 353 353 349 349 348 346 343 339 335 332 330 327 325 325 323 321 317 305 295 289 283 277 272 270 270 269 269 273 275 277 277 273 274 280 280 274 271 266 251 243 243 241 240 240 245 247 243 258 241 200 243 210 182 180 180 193 216 249
358 354 350 349 345 346 350 347 346 346 344 341 339 340 337 333 328 325 324 323 321 317 310 305 298 291 285 277 271 270 269 268 268 270 272 273 272 270 271 275 274 270 268 262 251 241 239 241 235 238 248 243 251 244 222 242 222 198 198 182 184 205 226
352 350 345 345 340 340 344 343 341 340 338 337 336 339 339 335 333 329 327 327 324 318 311 309 305 299 291 283 276 272 270 268 265 265 267 268 269 269 268 269 270 268 266 265 261 252 244 242 231 225 236 234 236 245 237 242 238 218 206 185 181 197 221
346 345 341 342 337 334 337 338 336 333 332 333 335 338 337 333 333 332 330 329 326 321 316 312 309 306 299 290 284 278 274 272 267 263 264 266 265 265 265 264 263 265 265 262 261 258 251 245 235 223 227 228 224 233 240 243 245 224 205 203 201 202 211
341 341 341 340 333 330 335 336 333 330 329 330 332 334 333 332 334 334 329 326 324 324 321 316 312 309 303 298 296 290 282 277 272 265 261 261 258 256 257 257 254 256 261 261 257 255 251 246 242 232 228 226 222 226 232 238 247 234 220 234 213 194 189
339 341 339 334 330 331 335 333 330 328 327 328 331 330 329 330 331 328 325 324 324 323 319 315 313 309 303 301 302 300 293 285 277 268 262 260 257 251 247 246 247 249 254 258 255 251 250 248 245 241 234 230 225 223 224 229 236 231 227 259 186 171 171
340 341 336 333 334 334 333 330 329 330 329 330 332 328 325 327 325 322 324 326 326 322 316 315 314 308 304 304 304 300 296 293 286 277 269 264 260 254 247 242 243 246 250 253 251 248 249 249 248 245 238 232 228 222 220 224 226 219 214 213 165 151 169
340 338 336 336 337 336 335 332 330 331 334 334 332 329 327 327 324 323 325 326 324 323 319 317 316 311 307 307 305 301 299 297 293 290 283 275 267 259 253 247 241 241 245 247 246 245 248 248 248 246 237 227 230 230 225 226 228 222 218 222 205 173 177
338 336 336 337 336 338 340 337 331 332 336 335 332 330 327 325 324 324 325 324 322 321 320 318 317 314 310 306 303 302 302 300 296 294 290 284 279 267 259 254 245 239 238 237 236 240 247 248 246 246 237 223 222 232 233 230 230 225 218 223 223 209 203
336 334 335 335 336 338 337 335 334 333 334 333 331 329 326 324 323 323 324 323 320 319 319 317 316 315 313 310 305 299 301 303 299 297 294 288 283 276 267 260 252 244 237 232 231 233 239 244 242 240 237 226 217 224 233 230 224 219 212 216 227 225 222
336 334 336 337 336 336 335 335 335 332 330 331 329 327 327 326 324 323 322 320 317 317 317 317 317 316 314 311 309 305 305 307 305 302 298 289 282 280 279 270 258 249 241 233 230 228 230 236 237 234 232 227 218 214 219 225 219 209 206 209 216 222 223
337 334 335 338 336 335 335 334 332 331 330 330 328 328 329 328 326 324 322 319 317 317 318 319 316 313 311 311 311 311 311 312 311 308 303 295 287 283 284 281 269 257 248 240 235 229 228 227 227 230 228 222 221 213 207 218 221 209 203 203 200 206 218
340 338 336 336 336 336 336 334 333 332 330 328 327 328 329 328 328 326 324 323 322 320 321 321 315 311 313 313 313 314 316 315 314 312 307 302 297 289 284 282 277 266 255 250 243 232 227 224 222 229 226 215 218 217 207 209 217 212 207 205 198 197 208
337 337 334 334 334 334 333 333 334 331 329 329 328 328 327 326 327 327 326 327 325 323 323 319 313 314 317 318 315 315 317 319 318 315 310 304 299 295 289 282 276 269 261 259 250 232 225 226 226 230 227 213 212 221 214 210 213 214 212 211 203 197 203
335 335 333 332 331 330 331 331 331 329 329 329 328 326 326 324 324 324 325 326 324 323 323 317 314 318 323 324 322 318 317 319 318 314 309 303 297 296 294 282 274 270 262 261 255 238 229 229 225 226 226 215 210 219 215 209 211 213 213 213 206 199 201
337 334 331 330 330 330 330 329 329 329 329 329 327 325 323 321 321 322 322 322 320 320 320 318 318 323 325 326 327 325 323 320 318 315 310 303 297 297 296 285 276 274 268 265 259 238 227 225 218 218 220 214 210 210 204 200 205 207 210 216 211 203 202
336 333 331 330 330 330 329 328 329 330 329 326 326 326 323 321 321 322 322 321 320 320 320 320 323 326 325 326 329 331 330 326 321 319 314 304 298 297 295 287 281 281 276 272 261 236 224 222 218 217 218 212 210 209 202 197 201 201 201 214 219 212 207
333 332 332 331 330 329 329 329 329 329 327 326 326 326 324 322 321 322 323 323 321 321 323 324 325 325 322 324 328 330 331 331 327 324 319 309 298 294 292 286 286 285 275 265 255 237 227 224 219 218 218 212 209 210 207 201 201 200 196 203 215 217 217
330 330 332 332 331 329 330 331 330 328 327 327 327 325 324 323 323 324 325 324 322 323 324 324 325 324 322 321 323 324 326 328 328 326 324 314 299 292 289 284 284 283 267 251 243 233 228 225 221 218 218 215 212 212 212 209 206 202 197 198 204 208 216
331 332 332 331 329 327 326 327 326 326 327 327 326 324 324 323 324 325 326 326 325 323 323 324 323 322 321 319 318 319 320 323 325 326 327 322 307 294 290 284 280 277 260 242 234 229 226 224 221 219 218 218 218 217 217 216 212 207 202 201 203 201 201
331 332 332 332 332 331 328 325 324 325 326 325 324 324 324 325 325 326 327 327 325 323 323 324 322 319 318 319 321 321 318 318 322 325 325 325 317 305 300 292 281 275 262 244 236 233 230 225 221 218 215 217 223 225 224 222 218 212 208 208 208 204 200
331 330 329 329 331 332 329 327 327 326 325 323 323 323 324 325 325 325 326 326 325 324 324 323 321 319 318 319 321 323 320 316 317 321 320 322 322 317 313 305 289 276 264 252 243 239 237 234 230 227 223 222 226 229 230 230 226 220 217 216 215 214 211
332 332 330 329 329 329 328 327 327 327 325 323 323 322 324 326 325 323 324 326 326 327 326 323 322 321 319 318 320 322 322 319 318 319 318 318 321 320 317 314 304 287 269 256 248 241 235 230 229 228 226 225 227 231 235 235 232 229 229 229 225 222 220
333 333 332 330 329 329 329 328 328 327 325 323 322 322 324 325 325 323 324 326 328 329 327 323 324 326 325 324 324 324 323 322 321 321 318 313 312 314 315 314 311 305 288 266 252 246 239 233 232 230 227 227 230 235 240 239 235 236 239 239 235 229 225
328 329 330 329 328 328 328 327 326 327 325 323 321 322 323 323 323 324 325 326 328 329 326 325 329 332 330 330 329 327 326 326 325 323 318 313 311 310 312 312 310 313 309 285 260 252 248 244 242 238 233 235 238 239 242 244 243 243 246 245 243 239 232
319 320 322 323 324 325 326 325 324 326 326 324 321 320 321 322 323 325 326 326 328 329 328 330 335 336 334 334 333 333 333 331 331 328 322 316 314 311 315 320 317 316 316 300 268 256 255 250 247 243 236 237 241 241 241 244 246 246 246 244 243 243 235
311 312 315 318 319 322 324 324 323 323 324 324 323 321 321 322 322 325 327 327 329 330 328 330 336 339 341 341 337 336 337 335 333 331 327 322 319 316 317 322 320 319 324 316 279 253 252 252 251 250 243 238 240 242 241 241 240 240 239 238 238 240 232
311 311 313 315 315 318 321 321 321 321 321 322 322 321 323 323 321 324 328 328 330 331 329 329 335 338 339 338 335 335 338 337 334 330 328 327 325 318 312 317 319 319 324 324 297 259 245 245 252 254 248 242 241 238 235 232 229 229 232 233 237 239 229
312 311 312 312 311 313 316 318 320 321 319 320 321 322 324 323 321 325 329 328 328 331 330 329 331 333 334 333 334 335 336 337 335 332 330 328 326 319 309 310 317 319 321 324 312 279 248 243 251 250 241 236 232 225 222 221 222 225 226 227 236 239 228
311 309 308 306 306 308 311 314 317 318 317 317 320 322 324 324 325 327 329 328 327 329 331 328 327 331 335 334 334 335 335 334 334 334 332 330 328 321 310 305 310 315 318 322 316 295 264 250 253 247 233 224 218 215 219 226 225 222 218 216 222 222 215
310 307 304 301 302 306 306 307 311 314 315 314 315 318 319 320 323 328 329 327 324 326 329 329 327 330 334 335 334 333 332 333 334 334 333 331 330 326 315 309 311 313 315 319 316 299 274 255 248 238 226 218 218 224 232 230 222 216 209 198 191 187 186